Index of /20260429/WXO-DD/model_gdps/15km/12/138
Name Last modified Size Description
Parent Directory -
20260429T12Z_MSC_GDPS_AbsoluteVorticity_IsbL-0200_LatLon0.15_PT138H.grib2 2026-04-29 16:31 1.5M
20260429T12Z_MSC_GDPS_AbsoluteVorticity_IsbL-0250_LatLon0.15_PT138H.grib2 2026-04-29 16:31 1.3M
20260429T12Z_MSC_GDPS_AbsoluteVorticity_IsbL-0500_LatLon0.15_PT138H.grib2 2026-04-29 16:31 1.4M
20260429T12Z_MSC_GDPS_AbsoluteVorticity_IsbL-0700_LatLon0.15_PT138H.grib2 2026-04-29 16:31 1.3M
20260429T12Z_MSC_GDPS_AbsoluteVorticity_IsbL-0850_LatLon0.15_PT138H.grib2 2026-04-29 16:31 1.6M
20260429T12Z_MSC_GDPS_AirTemp-Max_AGL-2m_LatLon0.15_PT138H.grib2 2026-04-29 16:31 743K
20260429T12Z_MSC_GDPS_AirTemp-Min_AGL-2m_LatLon0.15_PT138H.grib2 2026-04-29 16:31 787K
20260429T12Z_MSC_GDPS_AirTemp_AGL-120m_LatLon0.15_PT138H.grib2 2026-04-29 16:31 901K
20260429T12Z_MSC_GDPS_AirTemp_AGL-2m_LatLon0.15_PT138H.grib2 2026-04-29 16:31 1.0M
20260429T12Z_MSC_GDPS_AirTemp_AGL-40m_LatLon0.15_PT138H.grib2 2026-04-29 16:31 803K
20260429T12Z_MSC_GDPS_AirTemp_AGL-80m_LatLon0.15_PT138H.grib2 2026-04-29 16:31 909K
20260429T12Z_MSC_GDPS_AirTemp_IsbL-0001_LatLon0.15_PT138H.grib2 2026-04-29 16:31 650K
20260429T12Z_MSC_GDPS_AirTemp_IsbL-0005_LatLon0.15_PT138H.grib2 2026-04-29 16:31 681K
20260429T12Z_MSC_GDPS_AirTemp_IsbL-0010_LatLon0.15_PT138H.grib2 2026-04-29 16:31 688K
20260429T12Z_MSC_GDPS_AirTemp_IsbL-0020_LatLon0.15_PT138H.grib2 2026-04-29 16:31 788K
20260429T12Z_MSC_GDPS_AirTemp_IsbL-0030_LatLon0.15_PT138H.grib2 2026-04-29 16:31 753K
20260429T12Z_MSC_GDPS_AirTemp_IsbL-0050_LatLon0.15_PT138H.grib2 2026-04-29 16:31 808K
20260429T12Z_MSC_GDPS_AirTemp_IsbL-0100_LatLon0.15_PT138H.grib2 2026-04-29 16:31 964K
20260429T12Z_MSC_GDPS_AirTemp_IsbL-0150_LatLon0.15_PT138H.grib2 2026-04-29 16:31 964K
20260429T12Z_MSC_GDPS_AirTemp_IsbL-0175_LatLon0.15_PT138H.grib2 2026-04-29 16:31 954K
20260429T12Z_MSC_GDPS_AirTemp_IsbL-0200_LatLon0.15_PT138H.grib2 2026-04-29 16:31 1.0M
20260429T12Z_MSC_GDPS_AirTemp_IsbL-0225_LatLon0.15_PT138H.grib2 2026-04-29 16:31 1.0M
20260429T12Z_MSC_GDPS_AirTemp_IsbL-0250_LatLon0.15_PT138H.grib2 2026-04-29 16:31 1.0M
20260429T12Z_MSC_GDPS_AirTemp_IsbL-0275_LatLon0.15_PT138H.grib2 2026-04-29 16:31 1.0M
20260429T12Z_MSC_GDPS_AirTemp_IsbL-0300_LatLon0.15_PT138H.grib2 2026-04-29 16:31 941K
20260429T12Z_MSC_GDPS_AirTemp_IsbL-0350_LatLon0.15_PT138H.grib2 2026-04-29 16:31 921K
20260429T12Z_MSC_GDPS_AirTemp_IsbL-0400_LatLon0.15_PT138H.grib2 2026-04-29 16:31 936K
20260429T12Z_MSC_GDPS_AirTemp_IsbL-0450_LatLon0.15_PT138H.grib2 2026-04-29 16:31 961K
20260429T12Z_MSC_GDPS_AirTemp_IsbL-0500_LatLon0.15_PT138H.grib2 2026-04-29 16:31 1.0M
20260429T12Z_MSC_GDPS_AirTemp_IsbL-0550_LatLon0.15_PT138H.grib2 2026-04-29 16:31 1.0M
20260429T12Z_MSC_GDPS_AirTemp_IsbL-0600_LatLon0.15_PT138H.grib2 2026-04-29 16:31 881K
20260429T12Z_MSC_GDPS_AirTemp_IsbL-0650_LatLon0.15_PT138H.grib2 2026-04-29 16:31 909K
20260429T12Z_MSC_GDPS_AirTemp_IsbL-0700_LatLon0.15_PT138H.grib2 2026-04-29 16:31 948K
20260429T12Z_MSC_GDPS_AirTemp_IsbL-0750_LatLon0.15_PT138H.grib2 2026-04-29 16:31 1.0M
20260429T12Z_MSC_GDPS_AirTemp_IsbL-0800_LatLon0.15_PT138H.grib2 2026-04-29 16:31 1.1M
20260429T12Z_MSC_GDPS_AirTemp_IsbL-0850_LatLon0.15_PT138H.grib2 2026-04-29 16:31 1.1M
20260429T12Z_MSC_GDPS_AirTemp_IsbL-0875_LatLon0.15_PT138H.grib2 2026-04-29 16:31 1.2M
20260429T12Z_MSC_GDPS_AirTemp_IsbL-0900_LatLon0.15_PT138H.grib2 2026-04-29 16:31 1.2M
20260429T12Z_MSC_GDPS_AirTemp_IsbL-0925_LatLon0.15_PT138H.grib2 2026-04-29 16:31 1.1M
20260429T12Z_MSC_GDPS_AirTemp_IsbL-0950_LatLon0.15_PT138H.grib2 2026-04-29 16:31 1.1M
20260429T12Z_MSC_GDPS_AirTemp_IsbL-0970_LatLon0.15_PT138H.grib2 2026-04-29 16:31 1.1M
20260429T12Z_MSC_GDPS_AirTemp_IsbL-0985_LatLon0.15_PT138H.grib2 2026-04-29 16:31 1.1M
20260429T12Z_MSC_GDPS_AirTemp_IsbL-1000_LatLon0.15_PT138H.grib2 2026-04-29 16:31 1.1M
20260429T12Z_MSC_GDPS_AirTemp_IsbL-1015_LatLon0.15_PT138H.grib2 2026-04-29 16:31 1.1M
20260429T12Z_MSC_GDPS_Albedo_Sfc_LatLon0.15_PT138H.grib2 2026-04-29 16:31 245K
20260429T12Z_MSC_GDPS_CAPE_Sfc_LatLon0.15_PT138H.grib2 2026-04-29 16:31 3.8M
20260429T12Z_MSC_GDPS_CIN_Sfc_LatLon0.15_PT138H.grib2 2026-04-29 16:31 2.9M
20260429T12Z_MSC_GDPS_CloudWater_EAtm_LatLon0.15_PT138H.grib2 2026-04-29 16:31 528K
20260429T12Z_MSC_GDPS_ConvectivePrecip-Accum_Sfc_LatLon0.15_PT138H.grib2 2026-04-29 16:31 3.6M
20260429T12Z_MSC_GDPS_DewPointDepression_AGL-2m_LatLon0.15_PT138H.grib2 2026-04-29 16:31 766K
20260429T12Z_MSC_GDPS_DewPointDepression_IsbL-0010_LatLon0.15_PT138H.grib2 2026-04-29 16:31 71K
20260429T12Z_MSC_GDPS_DewPointDepression_IsbL-0020_LatLon0.15_PT138H.grib2 2026-04-29 16:31 74K
20260429T12Z_MSC_GDPS_DewPointDepression_IsbL-0030_LatLon0.15_PT138H.grib2 2026-04-29 16:31 87K
20260429T12Z_MSC_GDPS_DewPointDepression_IsbL-0050_LatLon0.15_PT138H.grib2 2026-04-29 16:31 381K
20260429T12Z_MSC_GDPS_DewPointDepression_IsbL-0100_LatLon0.15_PT138H.grib2 2026-04-29 16:31 398K
20260429T12Z_MSC_GDPS_DewPointDepression_IsbL-0150_LatLon0.15_PT138H.grib2 2026-04-29 16:31 478K
20260429T12Z_MSC_GDPS_DewPointDepression_IsbL-0175_LatLon0.15_PT138H.grib2 2026-04-29 16:31 583K
20260429T12Z_MSC_GDPS_DewPointDepression_IsbL-0200_LatLon0.15_PT138H.grib2 2026-04-29 16:31 676K
20260429T12Z_MSC_GDPS_DewPointDepression_IsbL-0225_LatLon0.15_PT138H.grib2 2026-04-29 16:31 759K
20260429T12Z_MSC_GDPS_DewPointDepression_IsbL-0250_LatLon0.15_PT138H.grib2 2026-04-29 16:31 851K
20260429T12Z_MSC_GDPS_DewPointDepression_IsbL-0275_LatLon0.15_PT138H.grib2 2026-04-29 16:31 871K
20260429T12Z_MSC_GDPS_DewPointDepression_IsbL-0300_LatLon0.15_PT138H.grib2 2026-04-29 16:31 912K
20260429T12Z_MSC_GDPS_DewPointDepression_IsbL-0350_LatLon0.15_PT138H.grib2 2026-04-29 16:31 947K
20260429T12Z_MSC_GDPS_DewPointDepression_IsbL-0400_LatLon0.15_PT138H.grib2 2026-04-29 16:31 1.0M
20260429T12Z_MSC_GDPS_DewPointDepression_IsbL-0450_LatLon0.15_PT138H.grib2 2026-04-29 16:31 1.0M
20260429T12Z_MSC_GDPS_DewPointDepression_IsbL-0500_LatLon0.15_PT138H.grib2 2026-04-29 16:31 1.0M
20260429T12Z_MSC_GDPS_DewPointDepression_IsbL-0550_LatLon0.15_PT138H.grib2 2026-04-29 16:31 1.0M
20260429T12Z_MSC_GDPS_DewPointDepression_IsbL-0600_LatLon0.15_PT138H.grib2 2026-04-29 16:31 1.0M
20260429T12Z_MSC_GDPS_DewPointDepression_IsbL-0650_LatLon0.15_PT138H.grib2 2026-04-29 16:31 1.0M
20260429T12Z_MSC_GDPS_DewPointDepression_IsbL-0700_LatLon0.15_PT138H.grib2 2026-04-29 16:31 1.1M
20260429T12Z_MSC_GDPS_DewPointDepression_IsbL-0750_LatLon0.15_PT138H.grib2 2026-04-29 16:31 1.1M
20260429T12Z_MSC_GDPS_DewPointDepression_IsbL-0800_LatLon0.15_PT138H.grib2 2026-04-29 16:31 1.1M
20260429T12Z_MSC_GDPS_DewPointDepression_IsbL-0850_LatLon0.15_PT138H.grib2 2026-04-29 16:31 1.2M
20260429T12Z_MSC_GDPS_DewPointDepression_IsbL-0875_LatLon0.15_PT138H.grib2 2026-04-29 16:31 1.1M
20260429T12Z_MSC_GDPS_DewPointDepression_IsbL-0900_LatLon0.15_PT138H.grib2 2026-04-29 16:31 1.1M
20260429T12Z_MSC_GDPS_DewPointDepression_IsbL-0925_LatLon0.15_PT138H.grib2 2026-04-29 16:31 1.0M
20260429T12Z_MSC_GDPS_DewPointDepression_IsbL-0950_LatLon0.15_PT138H.grib2 2026-04-29 16:31 1.0M
20260429T12Z_MSC_GDPS_DewPointDepression_IsbL-0970_LatLon0.15_PT138H.grib2 2026-04-29 16:31 1.0M
20260429T12Z_MSC_GDPS_DewPointDepression_IsbL-0985_LatLon0.15_PT138H.grib2 2026-04-29 16:31 1.0M
20260429T12Z_MSC_GDPS_DewPointDepression_IsbL-1000_LatLon0.15_PT138H.grib2 2026-04-29 16:31 970K
20260429T12Z_MSC_GDPS_DewPointDepression_IsbL-1015_LatLon0.15_PT138H.grib2 2026-04-29 16:31 914K
20260429T12Z_MSC_GDPS_DewPoint_AGL-2m_LatLon0.15_PT138H.grib2 2026-04-29 16:31 602K
20260429T12Z_MSC_GDPS_DownwardLongwaveRadiationFlux-Accum_Sfc_LatLon0.15_PT138H.grib2 2026-04-29 16:31 833K
20260429T12Z_MSC_GDPS_DownwardShortwaveRadiationFlux-Accum_NTAtm_LatLon0.15_PT138H.grib2 2026-04-29 16:31 192K
20260429T12Z_MSC_GDPS_DownwardShortwaveRadiationFlux-Accum_Sfc_LatLon0.15_PT138H.grib2 2026-04-29 16:31 1.0M
20260429T12Z_MSC_GDPS_FreezingRain-Accum12h_Sfc_LatLon0.15_PT138H.grib2 2026-04-29 16:31 83K
20260429T12Z_MSC_GDPS_FreezingRain-Accum1h_Sfc_LatLon0.15_PT138H.grib2 2026-04-29 16:31 36K
20260429T12Z_MSC_GDPS_FreezingRain-Accum24h_Sfc_LatLon0.15_PT138H.grib2 2026-04-29 16:31 139K
20260429T12Z_MSC_GDPS_FreezingRain-Accum3h_Sfc_LatLon0.15_PT138H.grib2 2026-04-29 16:31 35K
20260429T12Z_MSC_GDPS_FreezingRain-Accum6h_Sfc_LatLon0.15_PT138H.grib2 2026-04-29 16:31 51K
20260429T12Z_MSC_GDPS_FreezingRain-Accum_Sfc_LatLon0.15_PT138H.grib2 2026-04-29 16:31 397K
20260429T12Z_MSC_GDPS_GeopotentialHeight_IsbL-0001_LatLon0.15_PT138H.grib2 2026-04-29 16:31 435K
20260429T12Z_MSC_GDPS_GeopotentialHeight_IsbL-0005_LatLon0.15_PT138H.grib2 2026-04-29 16:31 482K
20260429T12Z_MSC_GDPS_GeopotentialHeight_IsbL-0010_LatLon0.15_PT138H.grib2 2026-04-29 16:31 477K
20260429T12Z_MSC_GDPS_GeopotentialHeight_IsbL-0020_LatLon0.15_PT138H.grib2 2026-04-29 16:31 413K
20260429T12Z_MSC_GDPS_GeopotentialHeight_IsbL-0030_LatLon0.15_PT138H.grib2 2026-04-29 16:31 571K
20260429T12Z_MSC_GDPS_GeopotentialHeight_IsbL-0050_LatLon0.15_PT138H.grib2 2026-04-29 16:31 573K
20260429T12Z_MSC_GDPS_GeopotentialHeight_IsbL-0100_LatLon0.15_PT138H.grib2 2026-04-29 16:31 606K
20260429T12Z_MSC_GDPS_GeopotentialHeight_IsbL-0150_LatLon0.15_PT138H.grib2 2026-04-29 16:31 620K
20260429T12Z_MSC_GDPS_GeopotentialHeight_IsbL-0175_LatLon0.15_PT138H.grib2 2026-04-29 16:31 624K
20260429T12Z_MSC_GDPS_GeopotentialHeight_IsbL-0200_LatLon0.15_PT138H.grib2 2026-04-29 16:31 629K
20260429T12Z_MSC_GDPS_GeopotentialHeight_IsbL-0225_LatLon0.15_PT138H.grib2 2026-04-29 16:31 634K
20260429T12Z_MSC_GDPS_GeopotentialHeight_IsbL-0250_LatLon0.15_PT138H.grib2 2026-04-29 16:31 638K
20260429T12Z_MSC_GDPS_GeopotentialHeight_IsbL-0275_LatLon0.15_PT138H.grib2 2026-04-29 16:31 638K
20260429T12Z_MSC_GDPS_GeopotentialHeight_IsbL-0300_LatLon0.15_PT138H.grib2 2026-04-29 16:31 631K
20260429T12Z_MSC_GDPS_GeopotentialHeight_IsbL-0350_LatLon0.15_PT138H.grib2 2026-04-29 16:31 628K
20260429T12Z_MSC_GDPS_GeopotentialHeight_IsbL-0400_LatLon0.15_PT138H.grib2 2026-04-29 16:31 620K
20260429T12Z_MSC_GDPS_GeopotentialHeight_IsbL-0450_LatLon0.15_PT138H.grib2 2026-04-29 16:31 611K
20260429T12Z_MSC_GDPS_GeopotentialHeight_IsbL-0500_LatLon0.15_PT138H.grib2 2026-04-29 16:31 533K
20260429T12Z_MSC_GDPS_GeopotentialHeight_IsbL-0550_LatLon0.15_PT138H.grib2 2026-04-29 16:31 527K
20260429T12Z_MSC_GDPS_GeopotentialHeight_IsbL-0600_LatLon0.15_PT138H.grib2 2026-04-29 16:31 687K
20260429T12Z_MSC_GDPS_GeopotentialHeight_IsbL-0650_LatLon0.15_PT138H.grib2 2026-04-29 16:31 686K
20260429T12Z_MSC_GDPS_GeopotentialHeight_IsbL-0700_LatLon0.15_PT138H.grib2 2026-04-29 16:31 687K
20260429T12Z_MSC_GDPS_GeopotentialHeight_IsbL-0750_LatLon0.15_PT138H.grib2 2026-04-29 16:31 693K
20260429T12Z_MSC_GDPS_GeopotentialHeight_IsbL-0800_LatLon0.15_PT138H.grib2 2026-04-29 16:31 705K
20260429T12Z_MSC_GDPS_GeopotentialHeight_IsbL-0850_LatLon0.15_PT138H.grib2 2026-04-29 16:31 714K
20260429T12Z_MSC_GDPS_GeopotentialHeight_IsbL-0875_LatLon0.15_PT138H.grib2 2026-04-29 16:31 718K
20260429T12Z_MSC_GDPS_GeopotentialHeight_IsbL-0900_LatLon0.15_PT138H.grib2 2026-04-29 16:31 728K
20260429T12Z_MSC_GDPS_GeopotentialHeight_IsbL-0925_LatLon0.15_PT138H.grib2 2026-04-29 16:31 733K
20260429T12Z_MSC_GDPS_GeopotentialHeight_IsbL-0950_LatLon0.15_PT138H.grib2 2026-04-29 16:31 742K
20260429T12Z_MSC_GDPS_GeopotentialHeight_IsbL-0970_LatLon0.15_PT138H.grib2 2026-04-29 16:31 752K
20260429T12Z_MSC_GDPS_GeopotentialHeight_IsbL-0985_LatLon0.15_PT138H.grib2 2026-04-29 16:31 765K
20260429T12Z_MSC_GDPS_GeopotentialHeight_IsbL-1000_LatLon0.15_PT138H.grib2 2026-04-29 16:31 785K
20260429T12Z_MSC_GDPS_GeopotentialHeight_IsbL-1015_LatLon0.15_PT138H.grib2 2026-04-29 16:31 808K
20260429T12Z_MSC_GDPS_Humidex_Sfc_LatLon0.15_PT138H.grib2 2026-04-29 16:31 5.3M
20260429T12Z_MSC_GDPS_IcePellets-Accum12h_Sfc_LatLon0.15_PT138H.grib2 2026-04-29 16:31 25K
20260429T12Z_MSC_GDPS_IcePellets-Accum1h_Sfc_LatLon0.15_PT138H.grib2 2026-04-29 16:31 15K
20260429T12Z_MSC_GDPS_IcePellets-Accum24h_Sfc_LatLon0.15_PT138H.grib2 2026-04-29 16:31 40K
20260429T12Z_MSC_GDPS_IcePellets-Accum3h_Sfc_LatLon0.15_PT138H.grib2 2026-04-29 16:31 19K
20260429T12Z_MSC_GDPS_IcePellets-Accum6h_Sfc_LatLon0.15_PT138H.grib2 2026-04-29 16:31 19K
20260429T12Z_MSC_GDPS_IcePellets-Accum_Sfc_LatLon0.15_PT138H.grib2 2026-04-29 16:31 97K
20260429T12Z_MSC_GDPS_KIndex_Sfc_LatLon0.15_PT138H.grib2 2026-04-29 16:31 6.5M
20260429T12Z_MSC_GDPS_LatentHeatNetFlux_Sfc_LatLon0.15_PT138H.grib2 2026-04-29 16:31 545K
20260429T12Z_MSC_GDPS_LiftedIndex-MU-VT_IsbL-0500_LatLon0.15_PT138H.grib2 2026-04-29 16:31 5.4M
20260429T12Z_MSC_GDPS_NetLongwaveRadiationFlux-Accum_Sfc_LatLon0.15_PT138H.grib2 2026-04-29 16:31 1.1M
20260429T12Z_MSC_GDPS_NetShortwaveRadiationFlux-Accum_Sfc_LatLon0.15_PT138H.grib2 2026-04-29 16:31 1.0M
20260429T12Z_MSC_GDPS_O3MixingRatio_Sfc_LatLon0.15_PT138H.grib2 2026-04-29 16:51 1.9M
20260429T12Z_MSC_GDPS_O3_EAtm_LatLon0.15_PT138H.grib2 2026-04-29 16:51 2.4M
20260429T12Z_MSC_GDPS_PlanetaryBoundaryLayerHeight_Sfc_LatLon0.15_PT138H.grib2 2026-04-29 16:31 2.5M
20260429T12Z_MSC_GDPS_Precip-Accum12h_Sfc_LatLon0.15_PT138H.grib2 2026-04-29 16:31 4.0M
20260429T12Z_MSC_GDPS_Precip-Accum1h_Sfc_LatLon0.15_PT138H.grib2 2026-04-29 16:31 3.2M
20260429T12Z_MSC_GDPS_Precip-Accum24h_Sfc_LatLon0.15_PT138H.grib2 2026-04-29 16:31 4.5M
20260429T12Z_MSC_GDPS_Precip-Accum3h_Sfc_LatLon0.15_PT138H.grib2 2026-04-29 16:31 3.4M
20260429T12Z_MSC_GDPS_Precip-Accum6h_Sfc_LatLon0.15_PT138H.grib2 2026-04-29 16:31 3.5M
20260429T12Z_MSC_GDPS_Precip-Accum_Sfc_LatLon0.15_PT138H.grib2 2026-04-29 16:31 5.2M
20260429T12Z_MSC_GDPS_PrecipRate_Sfc_LatLon0.15_PT138H.grib2 2026-04-29 16:31 3.1M
20260429T12Z_MSC_GDPS_PrecipType-Instant_Sfc_LatLon0.15_PT138H.grib2 2026-04-29 16:31 1.6M
20260429T12Z_MSC_GDPS_Pressure_MSL_LatLon0.15_PT138H.grib2 2026-04-29 16:31 819K
20260429T12Z_MSC_GDPS_Pressure_PVU-1.5_LatLon0.15_PT138H.grib2 2026-04-29 16:31 5.8M
20260429T12Z_MSC_GDPS_Pressure_PVU-1_LatLon0.15_PT138H.grib2 2026-04-29 16:31 6.0M
20260429T12Z_MSC_GDPS_Pressure_PVU-2_LatLon0.15_PT138H.grib2 2026-04-29 16:31 5.6M
20260429T12Z_MSC_GDPS_Pressure_Sfc_LatLon0.15_PT138H.grib2 2026-04-29 16:31 1.1M
20260429T12Z_MSC_GDPS_RadiativeTemp_Sfc_LatLon0.15_PT138H.grib2 2026-04-29 16:31 496K
20260429T12Z_MSC_GDPS_Rain-Accum12h_Sfc_LatLon0.15_PT138H.grib2 2026-04-29 16:31 2.6M
20260429T12Z_MSC_GDPS_Rain-Accum1h_Sfc_LatLon0.15_PT138H.grib2 2026-04-29 16:31 1.6M
20260429T12Z_MSC_GDPS_Rain-Accum24h_Sfc_LatLon0.15_PT138H.grib2 2026-04-29 16:31 3.2M
20260429T12Z_MSC_GDPS_Rain-Accum3h_Sfc_LatLon0.15_PT138H.grib2 2026-04-29 16:31 1.8M
20260429T12Z_MSC_GDPS_Rain-Accum6h_Sfc_LatLon0.15_PT138H.grib2 2026-04-29 16:31 2.3M
20260429T12Z_MSC_GDPS_Rain-Accum_Sfc_LatLon0.15_PT138H.grib2 2026-04-29 16:31 4.0M
20260429T12Z_MSC_GDPS_RelativeHumidity_AGL-2m_LatLon0.15_PT138H.grib2 2026-04-29 16:31 1.1M
20260429T12Z_MSC_GDPS_RelativeHumidity_IsbL-0010_LatLon0.15_PT138H.grib2 2026-04-29 16:31 195K
20260429T12Z_MSC_GDPS_RelativeHumidity_IsbL-0020_LatLon0.15_PT138H.grib2 2026-04-29 16:31 162K
20260429T12Z_MSC_GDPS_RelativeHumidity_IsbL-0030_LatLon0.15_PT138H.grib2 2026-04-29 16:31 185K
20260429T12Z_MSC_GDPS_RelativeHumidity_IsbL-0050_LatLon0.15_PT138H.grib2 2026-04-29 16:31 337K
20260429T12Z_MSC_GDPS_RelativeHumidity_IsbL-0100_LatLon0.15_PT138H.grib2 2026-04-29 16:31 500K
20260429T12Z_MSC_GDPS_RelativeHumidity_IsbL-0150_LatLon0.15_PT138H.grib2 2026-04-29 16:31 661K
20260429T12Z_MSC_GDPS_RelativeHumidity_IsbL-0175_LatLon0.15_PT138H.grib2 2026-04-29 16:31 787K
20260429T12Z_MSC_GDPS_RelativeHumidity_IsbL-0200_LatLon0.15_PT138H.grib2 2026-04-29 16:31 704K
20260429T12Z_MSC_GDPS_RelativeHumidity_IsbL-0225_LatLon0.15_PT138H.grib2 2026-04-29 16:31 776K
20260429T12Z_MSC_GDPS_RelativeHumidity_IsbL-0250_LatLon0.15_PT138H.grib2 2026-04-29 16:31 850K
20260429T12Z_MSC_GDPS_RelativeHumidity_IsbL-0275_LatLon0.15_PT138H.grib2 2026-04-29 16:31 876K
20260429T12Z_MSC_GDPS_RelativeHumidity_IsbL-0300_LatLon0.15_PT138H.grib2 2026-04-29 16:31 918K
20260429T12Z_MSC_GDPS_RelativeHumidity_IsbL-0350_LatLon0.15_PT138H.grib2 2026-04-29 16:31 940K
20260429T12Z_MSC_GDPS_RelativeHumidity_IsbL-0400_LatLon0.15_PT138H.grib2 2026-04-29 16:31 967K
20260429T12Z_MSC_GDPS_RelativeHumidity_IsbL-0450_LatLon0.15_PT138H.grib2 2026-04-29 16:31 1.0M
20260429T12Z_MSC_GDPS_RelativeHumidity_IsbL-0500_LatLon0.15_PT138H.grib2 2026-04-29 16:31 1.0M
20260429T12Z_MSC_GDPS_RelativeHumidity_IsbL-0550_LatLon0.15_PT138H.grib2 2026-04-29 16:31 1.0M
20260429T12Z_MSC_GDPS_RelativeHumidity_IsbL-0600_LatLon0.15_PT138H.grib2 2026-04-29 16:31 1.0M
20260429T12Z_MSC_GDPS_RelativeHumidity_IsbL-0650_LatLon0.15_PT138H.grib2 2026-04-29 16:31 1.1M
20260429T12Z_MSC_GDPS_RelativeHumidity_IsbL-0700_LatLon0.15_PT138H.grib2 2026-04-29 16:31 1.1M
20260429T12Z_MSC_GDPS_RelativeHumidity_IsbL-0750_LatLon0.15_PT138H.grib2 2026-04-29 16:31 1.2M
20260429T12Z_MSC_GDPS_RelativeHumidity_IsbL-0800_LatLon0.15_PT138H.grib2 2026-04-29 16:31 1.2M
20260429T12Z_MSC_GDPS_RelativeHumidity_IsbL-0850_LatLon0.15_PT138H.grib2 2026-04-29 16:31 1.3M
20260429T12Z_MSC_GDPS_RelativeHumidity_IsbL-0875_LatLon0.15_PT138H.grib2 2026-04-29 16:31 1.2M
20260429T12Z_MSC_GDPS_RelativeHumidity_IsbL-0900_LatLon0.15_PT138H.grib2 2026-04-29 16:31 1.2M
20260429T12Z_MSC_GDPS_RelativeHumidity_IsbL-0925_LatLon0.15_PT138H.grib2 2026-04-29 16:31 1.2M
20260429T12Z_MSC_GDPS_RelativeHumidity_IsbL-0950_LatLon0.15_PT138H.grib2 2026-04-29 16:31 1.2M
20260429T12Z_MSC_GDPS_RelativeHumidity_IsbL-0970_LatLon0.15_PT138H.grib2 2026-04-29 16:31 1.2M
20260429T12Z_MSC_GDPS_RelativeHumidity_IsbL-0985_LatLon0.15_PT138H.grib2 2026-04-29 16:31 1.1M
20260429T12Z_MSC_GDPS_RelativeHumidity_IsbL-1000_LatLon0.15_PT138H.grib2 2026-04-29 16:31 1.1M
20260429T12Z_MSC_GDPS_RelativeHumidity_IsbL-1015_LatLon0.15_PT138H.grib2 2026-04-29 16:31 1.1M
20260429T12Z_MSC_GDPS_RelativeVorticity_IsbL-0200_LatLon0.15_PT138H.grib2 2026-04-29 16:31 1.5M
20260429T12Z_MSC_GDPS_RelativeVorticity_IsbL-0250_LatLon0.15_PT138H.grib2 2026-04-29 16:31 1.6M
20260429T12Z_MSC_GDPS_RelativeVorticity_IsbL-0500_LatLon0.15_PT138H.grib2 2026-04-29 16:31 1.4M
20260429T12Z_MSC_GDPS_RelativeVorticity_IsbL-0700_LatLon0.15_PT138H.grib2 2026-04-29 16:31 1.3M
20260429T12Z_MSC_GDPS_RelativeVorticity_IsbL-0850_LatLon0.15_PT138H.grib2 2026-04-29 16:31 1.6M
20260429T12Z_MSC_GDPS_Runoff-Accum_Sfc_LatLon0.15_PT138H.grib2 2026-04-29 16:31 150K
20260429T12Z_MSC_GDPS_SensibleHeatNetFlux_Sfc_LatLon0.15_PT138H.grib2 2026-04-29 16:31 663K
20260429T12Z_MSC_GDPS_ShowalterIndex_IsbL-0500_LatLon0.15_PT138H.grib2 2026-04-29 16:31 6.2M
20260429T12Z_MSC_GDPS_Snow-Accum12h_Sfc_LatLon0.15_PT138H.grib2 2026-04-29 16:31 1.5M
20260429T12Z_MSC_GDPS_Snow-Accum1h_Sfc_LatLon0.15_PT138H.grib2 2026-04-29 16:31 1.3M
20260429T12Z_MSC_GDPS_Snow-Accum24h_Sfc_LatLon0.15_PT138H.grib2 2026-04-29 16:31 1.4M
20260429T12Z_MSC_GDPS_Snow-Accum3h_Sfc_LatLon0.15_PT138H.grib2 2026-04-29 16:31 1.1M
20260429T12Z_MSC_GDPS_Snow-Accum6h_Sfc_LatLon0.15_PT138H.grib2 2026-04-29 16:31 1.4M
20260429T12Z_MSC_GDPS_Snow-Accum_Sfc_LatLon0.15_PT138H.grib2 2026-04-29 16:31 2.1M
20260429T12Z_MSC_GDPS_SnowDensity_Sfc_LatLon0.15_PT138H.grib2 2026-04-29 16:31 263K
20260429T12Z_MSC_GDPS_SnowDepth_Sfc_LatLon0.15_PT138H.grib2 2026-04-29 16:31 1.7M
20260429T12Z_MSC_GDPS_SoilTemp_DBS-0to10cm_LatLon0.15_PT138H.grib2 2026-04-29 16:31 512K
20260429T12Z_MSC_GDPS_SoilTemp_Sfc_LatLon0.15_PT138H.grib2 2026-04-29 16:31 582K
20260429T12Z_MSC_GDPS_SoilVolumetricIceContent_Sfc_LatLon0.15_PT138H.grib2 2026-04-29 16:31 193K
20260429T12Z_MSC_GDPS_SoilVolumetricWaterContent_DBS-0to10cm_LatLon0.15_PT138H.grib2 2026-04-29 16:31 590K
20260429T12Z_MSC_GDPS_SoilVolumetricWaterContent_DBS-0to1cm_LatLon0.15_PT138H.grib2 2026-04-29 16:31 650K
20260429T12Z_MSC_GDPS_SpecificHumidity_AGL-120m_LatLon0.15_PT138H.grib2 2026-04-29 16:31 1.1M
20260429T12Z_MSC_GDPS_SpecificHumidity_AGL-2m_LatLon0.15_PT138H.grib2 2026-04-29 16:31 1.2M
20260429T12Z_MSC_GDPS_SpecificHumidity_AGL-40m_LatLon0.15_PT138H.grib2 2026-04-29 16:31 1.1M
20260429T12Z_MSC_GDPS_SpecificHumidity_AGL-80m_LatLon0.15_PT138H.grib2 2026-04-29 16:31 1.1M
20260429T12Z_MSC_GDPS_SpecificHumidity_IsbL-0001_LatLon0.15_PT138H.grib2 2026-04-29 16:31 1.2M
20260429T12Z_MSC_GDPS_SpecificHumidity_IsbL-0005_LatLon0.15_PT138H.grib2 2026-04-29 16:31 1.1M
20260429T12Z_MSC_GDPS_SpecificHumidity_IsbL-0010_LatLon0.15_PT138H.grib2 2026-04-29 16:31 1.2M
20260429T12Z_MSC_GDPS_SpecificHumidity_IsbL-0020_LatLon0.15_PT138H.grib2 2026-04-29 16:31 1.3M
20260429T12Z_MSC_GDPS_SpecificHumidity_IsbL-0030_LatLon0.15_PT138H.grib2 2026-04-29 16:31 1.6M
20260429T12Z_MSC_GDPS_SpecificHumidity_IsbL-0050_LatLon0.15_PT138H.grib2 2026-04-29 16:31 1.6M
20260429T12Z_MSC_GDPS_SpecificHumidity_IsbL-0100_LatLon0.15_PT138H.grib2 2026-04-29 16:31 1.3M
20260429T12Z_MSC_GDPS_SpecificHumidity_IsbL-0150_LatLon0.15_PT138H.grib2 2026-04-29 16:31 1.3M
20260429T12Z_MSC_GDPS_SpecificHumidity_IsbL-0175_LatLon0.15_PT138H.grib2 2026-04-29 16:31 1.2M
20260429T12Z_MSC_GDPS_SpecificHumidity_IsbL-0200_LatLon0.15_PT138H.grib2 2026-04-29 16:31 1.3M
20260429T12Z_MSC_GDPS_SpecificHumidity_IsbL-0225_LatLon0.15_PT138H.grib2 2026-04-29 16:31 1.3M
20260429T12Z_MSC_GDPS_SpecificHumidity_IsbL-0250_LatLon0.15_PT138H.grib2 2026-04-29 16:31 1.4M
20260429T12Z_MSC_GDPS_SpecificHumidity_IsbL-0275_LatLon0.15_PT138H.grib2 2026-04-29 16:31 1.3M
20260429T12Z_MSC_GDPS_SpecificHumidity_IsbL-0300_LatLon0.15_PT138H.grib2 2026-04-29 16:31 1.2M
20260429T12Z_MSC_GDPS_SpecificHumidity_IsbL-0350_LatLon0.15_PT138H.grib2 2026-04-29 16:31 1.2M
20260429T12Z_MSC_GDPS_SpecificHumidity_IsbL-0400_LatLon0.15_PT138H.grib2 2026-04-29 16:31 1.4M
20260429T12Z_MSC_GDPS_SpecificHumidity_IsbL-0450_LatLon0.15_PT138H.grib2 2026-04-29 16:31 1.6M
20260429T12Z_MSC_GDPS_SpecificHumidity_IsbL-0500_LatLon0.15_PT138H.grib2 2026-04-29 16:31 1.4M
20260429T12Z_MSC_GDPS_SpecificHumidity_IsbL-0550_LatLon0.15_PT138H.grib2 2026-04-29 16:31 1.6M
20260429T12Z_MSC_GDPS_SpecificHumidity_IsbL-0600_LatLon0.15_PT138H.grib2 2026-04-29 16:31 1.7M
20260429T12Z_MSC_GDPS_SpecificHumidity_IsbL-0650_LatLon0.15_PT138H.grib2 2026-04-29 16:31 1.5M
20260429T12Z_MSC_GDPS_SpecificHumidity_IsbL-0700_LatLon0.15_PT138H.grib2 2026-04-29 16:31 1.6M
20260429T12Z_MSC_GDPS_SpecificHumidity_IsbL-0750_LatLon0.15_PT138H.grib2 2026-04-29 16:31 1.7M
20260429T12Z_MSC_GDPS_SpecificHumidity_IsbL-0800_LatLon0.15_PT138H.grib2 2026-04-29 16:31 1.8M
20260429T12Z_MSC_GDPS_SpecificHumidity_IsbL-0850_LatLon0.15_PT138H.grib2 2026-04-29 16:31 1.9M
20260429T12Z_MSC_GDPS_SpecificHumidity_IsbL-0875_LatLon0.15_PT138H.grib2 2026-04-29 16:31 1.9M
20260429T12Z_MSC_GDPS_SpecificHumidity_IsbL-0900_LatLon0.15_PT138H.grib2 2026-04-29 16:31 1.9M
20260429T12Z_MSC_GDPS_SpecificHumidity_IsbL-0925_LatLon0.15_PT138H.grib2 2026-04-29 16:31 1.6M
20260429T12Z_MSC_GDPS_SpecificHumidity_IsbL-0950_LatLon0.15_PT138H.grib2 2026-04-29 16:31 1.5M
20260429T12Z_MSC_GDPS_SpecificHumidity_IsbL-0970_LatLon0.15_PT138H.grib2 2026-04-29 16:31 1.5M
20260429T12Z_MSC_GDPS_SpecificHumidity_IsbL-0985_LatLon0.15_PT138H.grib2 2026-04-29 16:31 1.5M
20260429T12Z_MSC_GDPS_SpecificHumidity_IsbL-1000_LatLon0.15_PT138H.grib2 2026-04-29 16:31 1.5M
20260429T12Z_MSC_GDPS_SpecificHumidity_IsbL-1015_LatLon0.15_PT138H.grib2 2026-04-29 16:31 1.5M
20260429T12Z_MSC_GDPS_SpecificHumidity_Sfc_LatLon0.15_PT138H.grib2 2026-04-29 16:31 675K
20260429T12Z_MSC_GDPS_Thickness_IsbL-0850to0700_LatLon0.15_PT138H.grib2 2026-04-29 16:31 467K
20260429T12Z_MSC_GDPS_Thickness_IsbL-1000to0500_LatLon0.15_PT138H.grib2 2026-04-29 16:31 374K
20260429T12Z_MSC_GDPS_Thickness_IsbL-1000to0850_LatLon0.15_PT138H.grib2 2026-04-29 16:31 492K
20260429T12Z_MSC_GDPS_TotalCloudCover_Sfc_LatLon0.15_PT138H.grib2 2026-04-29 16:31 820K
20260429T12Z_MSC_GDPS_TotalTotalsIndex_Sfc_LatLon0.15_PT138H.grib2 2026-04-29 16:31 6.2M
20260429T12Z_MSC_GDPS_UVIndex-ClearSky_Sfc_LatLon0.15_PT138H.grib2 2026-04-29 16:51 1.1M
20260429T12Z_MSC_GDPS_UVIndex_Sfc_LatLon0.15_PT138H.grib2 2026-04-29 16:51 1.5M
20260429T12Z_MSC_GDPS_UpwardLongwaveRadiationFlux_NTAtm_LatLon0.15_PT138H.grib2 2026-04-29 16:31 828K
20260429T12Z_MSC_GDPS_VerticalVelocity_IsbL-0200_LatLon0.15_PT138H.grib2 2026-04-29 16:31 1.2M
20260429T12Z_MSC_GDPS_VerticalVelocity_IsbL-0250_LatLon0.15_PT138H.grib2 2026-04-29 16:31 1.0M
20260429T12Z_MSC_GDPS_VerticalVelocity_IsbL-0500_LatLon0.15_PT138H.grib2 2026-04-29 16:31 1.3M
20260429T12Z_MSC_GDPS_VerticalVelocity_IsbL-0600_LatLon0.15_PT138H.grib2 2026-04-29 16:31 1.3M
20260429T12Z_MSC_GDPS_VerticalVelocity_IsbL-0700_LatLon0.15_PT138H.grib2 2026-04-29 16:31 1.4M
20260429T12Z_MSC_GDPS_VerticalVelocity_IsbL-0850_LatLon0.15_PT138H.grib2 2026-04-29 16:31 1.3M
20260429T12Z_MSC_GDPS_WindChill_Sfc_LatLon0.15_PT138H.grib2 2026-04-29 16:31 5.3M
20260429T12Z_MSC_GDPS_WindDir_AGL-10m_LatLon0.15_PT138H.grib2 2026-04-29 16:31 1.3M
20260429T12Z_MSC_GDPS_WindDir_AGL-120m_LatLon0.15_PT138H.grib2 2026-04-29 16:31 1.3M
20260429T12Z_MSC_GDPS_WindDir_AGL-40m_LatLon0.15_PT138H.grib2 2026-04-29 16:31 1.4M
20260429T12Z_MSC_GDPS_WindDir_AGL-80m_LatLon0.15_PT138H.grib2 2026-04-29 16:31 1.3M
20260429T12Z_MSC_GDPS_WindDir_IsbL-0001_LatLon0.15_PT138H.grib2 2026-04-29 16:31 678K
20260429T12Z_MSC_GDPS_WindDir_IsbL-0005_LatLon0.15_PT138H.grib2 2026-04-29 16:31 820K
20260429T12Z_MSC_GDPS_WindDir_IsbL-0010_LatLon0.15_PT138H.grib2 2026-04-29 16:31 832K
20260429T12Z_MSC_GDPS_WindDir_IsbL-0020_LatLon0.15_PT138H.grib2 2026-04-29 16:31 936K
20260429T12Z_MSC_GDPS_WindDir_IsbL-0030_LatLon0.15_PT138H.grib2 2026-04-29 16:31 936K
20260429T12Z_MSC_GDPS_WindDir_IsbL-0050_LatLon0.15_PT138H.grib2 2026-04-29 16:31 940K
20260429T12Z_MSC_GDPS_WindDir_IsbL-0100_LatLon0.15_PT138H.grib2 2026-04-29 16:31 1.0M
20260429T12Z_MSC_GDPS_WindDir_IsbL-0150_LatLon0.15_PT138H.grib2 2026-04-29 16:31 1.0M
20260429T12Z_MSC_GDPS_WindDir_IsbL-0175_LatLon0.15_PT138H.grib2 2026-04-29 16:31 1.1M
20260429T12Z_MSC_GDPS_WindDir_IsbL-0200_LatLon0.15_PT138H.grib2 2026-04-29 16:31 1.1M
20260429T12Z_MSC_GDPS_WindDir_IsbL-0225_LatLon0.15_PT138H.grib2 2026-04-29 16:31 1.1M
20260429T12Z_MSC_GDPS_WindDir_IsbL-0250_LatLon0.15_PT138H.grib2 2026-04-29 16:31 1.1M
20260429T12Z_MSC_GDPS_WindDir_IsbL-0275_LatLon0.15_PT138H.grib2 2026-04-29 16:31 1.2M
20260429T12Z_MSC_GDPS_WindDir_IsbL-0300_LatLon0.15_PT138H.grib2 2026-04-29 16:31 1.2M
20260429T12Z_MSC_GDPS_WindDir_IsbL-0350_LatLon0.15_PT138H.grib2 2026-04-29 16:31 1.2M
20260429T12Z_MSC_GDPS_WindDir_IsbL-0400_LatLon0.15_PT138H.grib2 2026-04-29 16:31 1.3M
20260429T12Z_MSC_GDPS_WindDir_IsbL-0450_LatLon0.15_PT138H.grib2 2026-04-29 16:31 1.3M
20260429T12Z_MSC_GDPS_WindDir_IsbL-0500_LatLon0.15_PT138H.grib2 2026-04-29 16:31 1.3M
20260429T12Z_MSC_GDPS_WindDir_IsbL-0550_LatLon0.15_PT138H.grib2 2026-04-29 16:31 1.3M
20260429T12Z_MSC_GDPS_WindDir_IsbL-0600_LatLon0.15_PT138H.grib2 2026-04-29 16:31 1.4M
20260429T12Z_MSC_GDPS_WindDir_IsbL-0650_LatLon0.15_PT138H.grib2 2026-04-29 16:31 1.5M
20260429T12Z_MSC_GDPS_WindDir_IsbL-0700_LatLon0.15_PT138H.grib2 2026-04-29 16:31 1.6M
20260429T12Z_MSC_GDPS_WindDir_IsbL-0750_LatLon0.15_PT138H.grib2 2026-04-29 16:31 1.6M
20260429T12Z_MSC_GDPS_WindDir_IsbL-0800_LatLon0.15_PT138H.grib2 2026-04-29 16:31 1.8M
20260429T12Z_MSC_GDPS_WindDir_IsbL-0850_LatLon0.15_PT138H.grib2 2026-04-29 16:31 1.9M
20260429T12Z_MSC_GDPS_WindDir_IsbL-0875_LatLon0.15_PT138H.grib2 2026-04-29 16:31 1.9M
20260429T12Z_MSC_GDPS_WindDir_IsbL-0900_LatLon0.15_PT138H.grib2 2026-04-29 16:31 1.9M
20260429T12Z_MSC_GDPS_WindDir_IsbL-0925_LatLon0.15_PT138H.grib2 2026-04-29 16:31 1.9M
20260429T12Z_MSC_GDPS_WindDir_IsbL-0950_LatLon0.15_PT138H.grib2 2026-04-29 16:31 1.9M
20260429T12Z_MSC_GDPS_WindDir_IsbL-0970_LatLon0.15_PT138H.grib2 2026-04-29 16:31 2.0M
20260429T12Z_MSC_GDPS_WindDir_IsbL-0985_LatLon0.15_PT138H.grib2 2026-04-29 16:31 2.0M
20260429T12Z_MSC_GDPS_WindDir_IsbL-1000_LatLon0.15_PT138H.grib2 2026-04-29 16:31 2.0M
20260429T12Z_MSC_GDPS_WindDir_IsbL-1015_LatLon0.15_PT138H.grib2 2026-04-29 16:31 2.0M
20260429T12Z_MSC_GDPS_WindGust-Max_AGL-10m_LatLon0.15_PT138H.grib2 2026-04-29 16:31 2.2M
20260429T12Z_MSC_GDPS_WindGust-Min_AGL-10m_LatLon0.15_PT138H.grib2 2026-04-29 16:31 2.1M
20260429T12Z_MSC_GDPS_WindGust_AGL-10m_LatLon0.15_PT138H.grib2 2026-04-29 16:31 2.1M
20260429T12Z_MSC_GDPS_WindSpeed_AGL-10m_LatLon0.15_PT138H.grib2 2026-04-29 16:31 1.1M
20260429T12Z_MSC_GDPS_WindSpeed_AGL-120m_LatLon0.15_PT138H.grib2 2026-04-29 16:31 1.2M
20260429T12Z_MSC_GDPS_WindSpeed_AGL-40m_LatLon0.15_PT138H.grib2 2026-04-29 16:31 1.2M
20260429T12Z_MSC_GDPS_WindSpeed_AGL-80m_LatLon0.15_PT138H.grib2 2026-04-29 16:31 1.2M
20260429T12Z_MSC_GDPS_WindSpeed_IsbL-0001_LatLon0.15_PT138H.grib2 2026-04-29 16:31 650K
20260429T12Z_MSC_GDPS_WindSpeed_IsbL-0005_LatLon0.15_PT138H.grib2 2026-04-29 16:31 687K
20260429T12Z_MSC_GDPS_WindSpeed_IsbL-0010_LatLon0.15_PT138H.grib2 2026-04-29 16:31 623K
20260429T12Z_MSC_GDPS_WindSpeed_IsbL-0020_LatLon0.15_PT138H.grib2 2026-04-29 16:31 662K
20260429T12Z_MSC_GDPS_WindSpeed_IsbL-0030_LatLon0.15_PT138H.grib2 2026-04-29 16:31 859K
20260429T12Z_MSC_GDPS_WindSpeed_IsbL-0050_LatLon0.15_PT138H.grib2 2026-04-29 16:31 899K
20260429T12Z_MSC_GDPS_WindSpeed_IsbL-0100_LatLon0.15_PT138H.grib2 2026-04-29 16:31 1.1M
20260429T12Z_MSC_GDPS_WindSpeed_IsbL-0150_LatLon0.15_PT138H.grib2 2026-04-29 16:31 943K
20260429T12Z_MSC_GDPS_WindSpeed_IsbL-0175_LatLon0.15_PT138H.grib2 2026-04-29 16:31 1.0M
20260429T12Z_MSC_GDPS_WindSpeed_IsbL-0200_LatLon0.15_PT138H.grib2 2026-04-29 16:31 1.1M
20260429T12Z_MSC_GDPS_WindSpeed_IsbL-0225_LatLon0.15_PT138H.grib2 2026-04-29 16:31 1.1M
20260429T12Z_MSC_GDPS_WindSpeed_IsbL-0250_LatLon0.15_PT138H.grib2 2026-04-29 16:31 1.1M
20260429T12Z_MSC_GDPS_WindSpeed_IsbL-0275_LatLon0.15_PT138H.grib2 2026-04-29 16:31 1.1M
20260429T12Z_MSC_GDPS_WindSpeed_IsbL-0300_LatLon0.15_PT138H.grib2 2026-04-29 16:31 1.1M
20260429T12Z_MSC_GDPS_WindSpeed_IsbL-0350_LatLon0.15_PT138H.grib2 2026-04-29 16:31 1.1M
20260429T12Z_MSC_GDPS_WindSpeed_IsbL-0400_LatLon0.15_PT138H.grib2 2026-04-29 16:31 1.1M
20260429T12Z_MSC_GDPS_WindSpeed_IsbL-0450_LatLon0.15_PT138H.grib2 2026-04-29 16:31 1.1M
20260429T12Z_MSC_GDPS_WindSpeed_IsbL-0500_LatLon0.15_PT138H.grib2 2026-04-29 16:31 1.1M
20260429T12Z_MSC_GDPS_WindSpeed_IsbL-0550_LatLon0.15_PT138H.grib2 2026-04-29 16:31 1.1M
20260429T12Z_MSC_GDPS_WindSpeed_IsbL-0600_LatLon0.15_PT138H.grib2 2026-04-29 16:31 1.1M
20260429T12Z_MSC_GDPS_WindSpeed_IsbL-0650_LatLon0.15_PT138H.grib2 2026-04-29 16:31 1.2M
20260429T12Z_MSC_GDPS_WindSpeed_IsbL-0700_LatLon0.15_PT138H.grib2 2026-04-29 16:31 1.5M
20260429T12Z_MSC_GDPS_WindSpeed_IsbL-0750_LatLon0.15_PT138H.grib2 2026-04-29 16:31 1.5M
20260429T12Z_MSC_GDPS_WindSpeed_IsbL-0800_LatLon0.15_PT138H.grib2 2026-04-29 16:31 1.6M
20260429T12Z_MSC_GDPS_WindSpeed_IsbL-0850_LatLon0.15_PT138H.grib2 2026-04-29 16:31 1.7M
20260429T12Z_MSC_GDPS_WindSpeed_IsbL-0875_LatLon0.15_PT138H.grib2 2026-04-29 16:31 1.8M
20260429T12Z_MSC_GDPS_WindSpeed_IsbL-0900_LatLon0.15_PT138H.grib2 2026-04-29 16:31 1.8M
20260429T12Z_MSC_GDPS_WindSpeed_IsbL-0925_LatLon0.15_PT138H.grib2 2026-04-29 16:31 1.8M
20260429T12Z_MSC_GDPS_WindSpeed_IsbL-0950_LatLon0.15_PT138H.grib2 2026-04-29 16:31 1.8M
20260429T12Z_MSC_GDPS_WindSpeed_IsbL-0970_LatLon0.15_PT138H.grib2 2026-04-29 16:31 1.9M
20260429T12Z_MSC_GDPS_WindSpeed_IsbL-0985_LatLon0.15_PT138H.grib2 2026-04-29 16:31 1.9M
20260429T12Z_MSC_GDPS_WindSpeed_IsbL-1000_LatLon0.15_PT138H.grib2 2026-04-29 16:31 1.9M
20260429T12Z_MSC_GDPS_WindSpeed_IsbL-1015_LatLon0.15_PT138H.grib2 2026-04-29 16:31 1.8M
20260429T12Z_MSC_GDPS_WindU_AGL-10m_LatLon0.15_PT138H.grib2 2026-04-29 16:31 1.3M
20260429T12Z_MSC_GDPS_WindU_AGL-120m_LatLon0.15_PT138H.grib2 2026-04-29 16:31 1.0M
20260429T12Z_MSC_GDPS_WindU_AGL-40m_LatLon0.15_PT138H.grib2 2026-04-29 16:31 957K
20260429T12Z_MSC_GDPS_WindU_AGL-80m_LatLon0.15_PT138H.grib2 2026-04-29 16:31 1.0M
20260429T12Z_MSC_GDPS_WindU_IsbL-0001_LatLon0.15_PT138H.grib2 2026-04-29 16:31 505K
20260429T12Z_MSC_GDPS_WindU_IsbL-0005_LatLon0.15_PT138H.grib2 2026-04-29 16:31 685K
20260429T12Z_MSC_GDPS_WindU_IsbL-0010_LatLon0.15_PT138H.grib2 2026-04-29 16:31 697K
20260429T12Z_MSC_GDPS_WindU_IsbL-0020_LatLon0.15_PT138H.grib2 2026-04-29 16:31 729K
20260429T12Z_MSC_GDPS_WindU_IsbL-0030_LatLon0.15_PT138H.grib2 2026-04-29 16:31 736K
20260429T12Z_MSC_GDPS_WindU_IsbL-0050_LatLon0.15_PT138H.grib2 2026-04-29 16:31 692K
20260429T12Z_MSC_GDPS_WindU_IsbL-0100_LatLon0.15_PT138H.grib2 2026-04-29 16:31 858K
20260429T12Z_MSC_GDPS_WindU_IsbL-0150_LatLon0.15_PT138H.grib2 2026-04-29 16:31 1.0M
20260429T12Z_MSC_GDPS_WindU_IsbL-0175_LatLon0.15_PT138H.grib2 2026-04-29 16:31 1.0M
20260429T12Z_MSC_GDPS_WindU_IsbL-0200_LatLon0.15_PT138H.grib2 2026-04-29 16:31 838K
20260429T12Z_MSC_GDPS_WindU_IsbL-0225_LatLon0.15_PT138H.grib2 2026-04-29 16:31 847K
20260429T12Z_MSC_GDPS_WindU_IsbL-0250_LatLon0.15_PT138H.grib2 2026-04-29 16:31 850K
20260429T12Z_MSC_GDPS_WindU_IsbL-0275_LatLon0.15_PT138H.grib2 2026-04-29 16:31 877K
20260429T12Z_MSC_GDPS_WindU_IsbL-0300_LatLon0.15_PT138H.grib2 2026-04-29 16:31 870K
20260429T12Z_MSC_GDPS_WindU_IsbL-0350_LatLon0.15_PT138H.grib2 2026-04-29 16:31 886K
20260429T12Z_MSC_GDPS_WindU_IsbL-0400_LatLon0.15_PT138H.grib2 2026-04-29 16:31 888K
20260429T12Z_MSC_GDPS_WindU_IsbL-0450_LatLon0.15_PT138H.grib2 2026-04-29 16:31 1.1M
20260429T12Z_MSC_GDPS_WindU_IsbL-0500_LatLon0.15_PT138H.grib2 2026-04-29 16:31 1.1M
20260429T12Z_MSC_GDPS_WindU_IsbL-0550_LatLon0.15_PT138H.grib2 2026-04-29 16:31 1.1M
20260429T12Z_MSC_GDPS_WindU_IsbL-0600_LatLon0.15_PT138H.grib2 2026-04-29 16:31 1.1M
20260429T12Z_MSC_GDPS_WindU_IsbL-0650_LatLon0.15_PT138H.grib2 2026-04-29 16:31 1.2M
20260429T12Z_MSC_GDPS_WindU_IsbL-0700_LatLon0.15_PT138H.grib2 2026-04-29 16:31 1.2M
20260429T12Z_MSC_GDPS_WindU_IsbL-0750_LatLon0.15_PT138H.grib2 2026-04-29 16:31 1.3M
20260429T12Z_MSC_GDPS_WindU_IsbL-0800_LatLon0.15_PT138H.grib2 2026-04-29 16:31 1.3M
20260429T12Z_MSC_GDPS_WindU_IsbL-0850_LatLon0.15_PT138H.grib2 2026-04-29 16:31 1.4M
20260429T12Z_MSC_GDPS_WindU_IsbL-0875_LatLon0.15_PT138H.grib2 2026-04-29 16:31 1.5M
20260429T12Z_MSC_GDPS_WindU_IsbL-0900_LatLon0.15_PT138H.grib2 2026-04-29 16:31 1.5M
20260429T12Z_MSC_GDPS_WindU_IsbL-0925_LatLon0.15_PT138H.grib2 2026-04-29 16:31 1.4M
20260429T12Z_MSC_GDPS_WindU_IsbL-0950_LatLon0.15_PT138H.grib2 2026-04-29 16:31 1.4M
20260429T12Z_MSC_GDPS_WindU_IsbL-0970_LatLon0.15_PT138H.grib2 2026-04-29 16:31 1.4M
20260429T12Z_MSC_GDPS_WindU_IsbL-0985_LatLon0.15_PT138H.grib2 2026-04-29 16:31 1.4M
20260429T12Z_MSC_GDPS_WindU_IsbL-1000_LatLon0.15_PT138H.grib2 2026-04-29 16:31 1.4M
20260429T12Z_MSC_GDPS_WindU_IsbL-1015_LatLon0.15_PT138H.grib2 2026-04-29 16:31 1.3M
20260429T12Z_MSC_GDPS_WindV_AGL-10m_LatLon0.15_PT138H.grib2 2026-04-29 16:31 1.6M
20260429T12Z_MSC_GDPS_WindV_AGL-120m_LatLon0.15_PT138H.grib2 2026-04-29 16:31 962K
20260429T12Z_MSC_GDPS_WindV_AGL-40m_LatLon0.15_PT138H.grib2 2026-04-29 16:31 955K
20260429T12Z_MSC_GDPS_WindV_AGL-80m_LatLon0.15_PT138H.grib2 2026-04-29 16:31 961K
20260429T12Z_MSC_GDPS_WindV_IsbL-0001_LatLon0.15_PT138H.grib2 2026-04-29 16:31 780K
20260429T12Z_MSC_GDPS_WindV_IsbL-0005_LatLon0.15_PT138H.grib2 2026-04-29 16:31 851K
20260429T12Z_MSC_GDPS_WindV_IsbL-0010_LatLon0.15_PT138H.grib2 2026-04-29 16:31 806K
20260429T12Z_MSC_GDPS_WindV_IsbL-0020_LatLon0.15_PT138H.grib2 2026-04-29 16:31 932K
20260429T12Z_MSC_GDPS_WindV_IsbL-0030_LatLon0.15_PT138H.grib2 2026-04-29 16:31 933K
20260429T12Z_MSC_GDPS_WindV_IsbL-0050_LatLon0.15_PT138H.grib2 2026-04-29 16:31 897K
20260429T12Z_MSC_GDPS_WindV_IsbL-0100_LatLon0.15_PT138H.grib2 2026-04-29 16:31 848K
20260429T12Z_MSC_GDPS_WindV_IsbL-0150_LatLon0.15_PT138H.grib2 2026-04-29 16:31 1.0M
20260429T12Z_MSC_GDPS_WindV_IsbL-0175_LatLon0.15_PT138H.grib2 2026-04-29 16:31 1.0M
20260429T12Z_MSC_GDPS_WindV_IsbL-0200_LatLon0.15_PT138H.grib2 2026-04-29 16:31 832K
20260429T12Z_MSC_GDPS_WindV_IsbL-0225_LatLon0.15_PT138H.grib2 2026-04-29 16:31 841K
20260429T12Z_MSC_GDPS_WindV_IsbL-0250_LatLon0.15_PT138H.grib2 2026-04-29 16:31 901K
20260429T12Z_MSC_GDPS_WindV_IsbL-0275_LatLon0.15_PT138H.grib2 2026-04-29 16:31 926K
20260429T12Z_MSC_GDPS_WindV_IsbL-0300_LatLon0.15_PT138H.grib2 2026-04-29 16:31 918K
20260429T12Z_MSC_GDPS_WindV_IsbL-0350_LatLon0.15_PT138H.grib2 2026-04-29 16:31 873K
20260429T12Z_MSC_GDPS_WindV_IsbL-0400_LatLon0.15_PT138H.grib2 2026-04-29 16:31 875K
20260429T12Z_MSC_GDPS_WindV_IsbL-0450_LatLon0.15_PT138H.grib2 2026-04-29 16:31 876K
20260429T12Z_MSC_GDPS_WindV_IsbL-0500_LatLon0.15_PT138H.grib2 2026-04-29 16:31 1.1M
20260429T12Z_MSC_GDPS_WindV_IsbL-0550_LatLon0.15_PT138H.grib2 2026-04-29 16:31 1.1M
20260429T12Z_MSC_GDPS_WindV_IsbL-0600_LatLon0.15_PT138H.grib2 2026-04-29 16:31 1.1M
20260429T12Z_MSC_GDPS_WindV_IsbL-0650_LatLon0.15_PT138H.grib2 2026-04-29 16:31 1.2M
20260429T12Z_MSC_GDPS_WindV_IsbL-0700_LatLon0.15_PT138H.grib2 2026-04-29 16:31 1.2M
20260429T12Z_MSC_GDPS_WindV_IsbL-0750_LatLon0.15_PT138H.grib2 2026-04-29 16:31 1.3M
20260429T12Z_MSC_GDPS_WindV_IsbL-0800_LatLon0.15_PT138H.grib2 2026-04-29 16:31 1.3M
20260429T12Z_MSC_GDPS_WindV_IsbL-0850_LatLon0.15_PT138H.grib2 2026-04-29 16:31 1.4M
20260429T12Z_MSC_GDPS_WindV_IsbL-0875_LatLon0.15_PT138H.grib2 2026-04-29 16:31 1.4M
20260429T12Z_MSC_GDPS_WindV_IsbL-0900_LatLon0.15_PT138H.grib2 2026-04-29 16:31 1.4M
20260429T12Z_MSC_GDPS_WindV_IsbL-0925_LatLon0.15_PT138H.grib2 2026-04-29 16:31 1.4M
20260429T12Z_MSC_GDPS_WindV_IsbL-0950_LatLon0.15_PT138H.grib2 2026-04-29 16:31 1.4M
20260429T12Z_MSC_GDPS_WindV_IsbL-0970_LatLon0.15_PT138H.grib2 2026-04-29 16:31 1.4M
20260429T12Z_MSC_GDPS_WindV_IsbL-0985_LatLon0.15_PT138H.grib2 2026-04-29 16:31 1.4M
20260429T12Z_MSC_GDPS_WindV_IsbL-1000_LatLon0.15_PT138H.grib2 2026-04-29 16:31 1.4M
20260429T12Z_MSC_GDPS_WindV_IsbL-1015_LatLon0.15_PT138H.grib2 2026-04-29 16:31 1.3M